Regional Weather Roundup
Issued by NWS Glasgow, MT

Home | Current Version | Previous Version | Text Only | Print | Product List | Glossary On
Versions: 1 2 3 4 5 6 7 8 9 10 11 12 13 14 15 16 17 18 19 20 21 22 23 24 25 26 27 28 29 30 31 32 33 34 35 36 37 38 39 40 41 42 43 44 45 46 47 48 49 50
000
ASUS45 KGGW 250915
RWRGGW
HOURLY REGIONAL WEATHER ROUNDUP FOR NORTHEAST MONTANA
NATIONAL WEATHER SERVICE GLASGOW MONTANA
300 AM MDT THU MAY 25 2017

NOTE: "FAIR" INDICATES FEW OR NO CLOUDS BELOW 12,000 FEET WITH NO
SIGNIFICANT WEATHER AND/OR OBSTRUCTIONS TO VISISBILITY.

NORTHEAST MONTANA


CITY           SKY/WX    TMP DP  RH WIND       PRES   REMARKS
GLASGOW        MOCLDY    50  26  39 SW15      29.34F
PLENTYWOOD       N/A     41  28  60 S3          N/A
WOLF POINT     CLEAR     41  27  57 SE3       29.35F
JORDAN           N/A     52  26  36 W21G31    29.42R
WINNETT          N/A     48  30  49 W10G23      N/A
SIDNEY         PTCLDY    47  46  97 SW9       29.40
GLENDIVE       CLEAR     45  35  68 SW3       29.42S
MALTA            N/A     51  41  68 SW20G35     N/A
SCOBEY           N/A     42  20  41 CALM      29.35
OPHEIM           N/A     43  32  65 S12       29.08F

FORT PECK REPORTS


CITY           SKY/WX    TMP DP  RH WIND       PRES   REMARKS
FORT PECK        N/A     52  33  48 SW15        N/A

SOUTHEAST MONTANA


CITY           SKY/WX    TMP DP  RH WIND       PRES   REMARKS
BILLINGS       CLEAR     48  21  34 W14       29.53F
MILES CITY     PTCLDY    40  22  48 SW9       29.46R
BAKER          CLEAR     43  41  93 CALM      29.44S
LIVINGSTON     CLEAR     43  21  41 SW22G30   29.61S

CENTRAL MONTANA


CITY           SKY/WX    TMP DP  RH WIND       PRES   REMARKS
HAVRE          CLOUDY    45  44  97 W26G37    29.35R FOG
LEWISTOWN      CLOUDY    43  34  70 W20G28    29.52R
GREAT FALLS    LGT RAIN  41  37  86 W20       29.58S
CUT BANK       LGT RAIN  42  32  67 W31       29.54S
HELENA         CLOUDY    49  28  44 W12G22    29.64S
BUTTE          CLOUDY    41  21  44 NW6       29.71R
BOZEMAN        CLEAR     38  24  57 SW7       29.67R

WESTERN MONTANA


CITY           SKY/WX    TMP DP  RH WIND       PRES   REMARKS
MISSOULA       CLOUDY    46  34  62 NW5       29.73S
KALISPELL      NOT AVBL

NORTH DAKOTA


CITY           SKY/WX    TMP DP  RH WIND       PRES   REMARKS
WILLISTON      PTCLDY    49  46  90 SW5       29.38R
DICKINSON      CLOUDY    44  44 100 CALM      29.38R
MINOT          CLOUDY    54  49  83 SE9       29.40S
BISMARCK       CLOUDY    53  48  83 SE7       29.42R

SOUTHERN SASKATCHEWAN


CITY           SKY/WX    TMP DP  RH WIND       PRES   REMARKS
REGINA         CLEAR     43  30  61 S9        29.25R
ESTEVAN        PTCLDY    50  48  93 S13       29.33S
SWIFT CURRENT  CLOUDY    43  41  93 W9        29.16R




USA.gov is the U.S. government's official web portal to all federal, state and local government web resources and services.